Zurück zum Katalog

BREEZE-M DEB

AktivHEO
NORAD 38187·DEBRIS·🇷🇺 Russia

Gestartet Nov 25, 2011 von Baikonur Cosmodrome

Loading…

Nächste Überflüge (nächste 24 Stunden)

TLE

AktuellSource: Space-Track

Epoche: Sep 12, 2026, 20:42 UTC

1 38187U 11069D   26255.86266081 -.00000138  00000-0  00000-0 0  9994
2 38187   1.6485  34.7342 3802772 340.2024   8.4029  1.71974027 90549

Verfolge BREEZE-M DEB in Echtzeit mit AllMySat

Download on the App Store